Tracking 17938 objects as of 24-February-2017
HD Live streaming from Space Station
objects crossing your sky now

BEESAT 4

Track BEESAT 4 now!
10-day predictions
BEESAT 4 is classified as:


NORAD ID: 41619
Int'l Code: 2016-040W
Perigee: 502.7 km
Apogee: 521.9 km
Inclination: 97.5 °
Period: 94.7 minutes
Semi major axis: 6883 km
RCS: Unknown
Launch date: June 22, 2016
Source: Germany (GER)
Launch site: SIRHARIKOTA (SRI)
Uplink (MHz):
Downlink (MHz): 435.950
Beacon (MHz): 435.950
Mode: 4800bps GMSK CW
Call sign: DP0BEH
Status: Active

Your satellite tracking list
Your tracking list is empty





NASA's NSSDC Master Catalog

Two Line Element Set (TLE):
1 41619U 16040W   17054.40658593  .00002654  00000-0  12532-3 0  9992
2 41619  97.4777 117.8421 0013913 104.7270 255.5508 15.20233158 25306
Source of the keplerian elements: AFSPC